Find Starlink 32670

NORAD ID: 62210 Int'l Des: 2024-229 Owner: SPXS Country: US Constellation: starlink operational
LEOCIRCULAR

Current View

Loading 3D Globe...

About Starlink 32670

Starlink 32670 (NORAD 62210) is a starlink constellation satellite (v2 mini) launched Dec 4, 2024 by SPXS of US. It operates in LEO, CIRCULAR orbit with a mass of 730.00 kg.

About Starlink 32670

Description loading...

Upcoming Passes

Passes for default location (London). Set your location on the main map for personalized predictions.

Altitude History

Loading altitude history...

Two-Line Element Set

1 62210U 24229U 26167.03498708 .00019017 00000-0 69817-3 0 9993
2 62210 43.0118 75.1760 0000552 197.1814 162.9020 15.27609517 85601
Epoch: Jun 16, 2026 • Age: 16 hours

Current Status

Altitude 487.3 km
Velocity 7.62 km/s
Sub-Earth Point -19.03°S, 101.13°W
Launch Date Dec 4, 2024
Age 1.5 years
Type internet

Technical Details

Classification Payload
Mass 730.00 kg
Dry Mass 700.00 kg
Total Mass 730.00 kg
Length 0.30 m
Diameter 4.10 m
Span 29.00 m
Shape Box + pan
Manufacturer SPXS
Bus Type Starlink V2M
Phase Status In Orbit
Owner/State SPXS/US

Most Searched